Weather History for El Dorado, AR

Change the Weather History Date:

Sunday, June 30, 2013

  Actual Average Record
Temperature  
Mean Temperature 76 °F 81 °F  
Max Temperature 87 °F 91 °F 103 °F (1925)
Min Temperature 65 °F 70 °F 59 °F (2006)
Degree Days  
Heating Degree Days 0 0  
Month to date heating degree days 0 0  
Since 1 June heating degree days 0 0  
Since 1 July heating degree days 2712 2673  
Cooling Degree Days 11 16  
Month to date cooling degree days 414 396  
Year to date cooling degree days 692 707  
Since 1 June cooling degree days 414 396  
Growing Degree Days 26 (Base 50)    
Moisture  
Dew Point 61 °F    
Average Humidity 65    
Maximum Humidity 87    
Minimum Humidity 42    
Precipitation  
Precipitation 0.00 in 0.17 in 1.22 in (1994)
Month to date precipitation 4.17 4.90  
Year to date precipitation 21.26 27.88  
Snow  
Snow 0.00 in - - ()
Month to date snowfall 0.0  
Since 1 June snowfall 0.0  
Since 1 July snowfall 0.1  
Snow Depth 0.00 in    
Sea Level Pressure  
Sea Level Pressure 29.82 in    
Wind  
Wind Speed 6 mph (NNW)    
Max Wind Speed 15 mph    
Max Gust Speed 22 mph    
Visibility 10 miles    
Events      
T = Trace of Precipitation, MM = Missing Value Source: NWS Daily Summary

Daily Weather History Graph

Daily Weather History Graph

Search for Another Location

Airport:

Trip Planner

Search our weather history database for the weather conditions in past years. The results will help you decide how hot, cold, wet, or windy it might be!

Date:

Astronomy

Jun. 30, 2013 Rise Set
Actual Time 6:05 AM CDT 8:24 PM CDT
Civil Twilight 5:36 AM CDT 8:53 PM CDT
Nautical Twilight 5:01 AM CDT 9:28 PM CDT
Astronomical Twilight 4:23 AM CDT 10:06 PM CDT
Moon 12:49 AM CDT (6/30) 1:52 PM CDT (6/30)
Length of Visible Light 15h 16m
Length of Day
14h 19m
Last Quarter, 45% of the Moon is Illuminated
Jun 30
Last Quarter
Jul 8
New
Jul 15
First Quarter
Jul 22
Full
Jul 29
Last Quarter

Hourly Weather History & Observations

Time (CDT) Temp. Heat Index Dew Point Humidity Pressure Visibility Wind Dir Wind Speed Gust Speed Precip Events Conditions
12:53 AM 71.1 °F - 61.0 °F 70% 29.78 in 10.0 mi WNW 3.5 mph - N/A   Clear
1:53 AM 70.0 °F - 60.1 °F 71% 29.77 in 10.0 mi WNW 4.6 mph - N/A   Clear
2:53 AM 68.0 °F - 60.1 °F 76% 29.77 in 10.0 mi NW 4.6 mph - N/A   Clear
3:53 AM 66.0 °F - 59.0 °F 78% 29.77 in 10.0 mi NW 4.6 mph - N/A   Clear
4:53 AM 66.9 °F - 57.9 °F 73% 29.77 in 10.0 mi NW 5.8 mph - N/A   Clear
5:53 AM 66.0 °F - 57.9 °F 75% 29.78 in 10.0 mi NW 6.9 mph - N/A   Clear
6:53 AM 66.9 °F - 57.9 °F 73% 29.80 in 10.0 mi NNW 4.6 mph - N/A   Clear
7:53 AM 72.0 °F - 59.0 °F 64% 29.82 in 10.0 mi NNW 5.8 mph - N/A   Clear
8:53 AM 75.9 °F - 60.1 °F 58% 29.82 in 10.0 mi North 10.4 mph - N/A   Clear
9:53 AM 79.0 °F - 59.0 °F 50% 29.83 in 10.0 mi North 9.2 mph - N/A   Clear
10:53 AM 82.0 °F 82.4 °F 60.1 °F 47% 29.83 in 10.0 mi North 8.1 mph - N/A   Clear
11:53 AM 82.9 °F 83.3 °F 61.0 °F 47% 29.84 in 10.0 mi NW 8.1 mph - N/A   Clear
12:53 PM 84.0 °F 84.4 °F 61.0 °F 46% 29.83 in 10.0 mi NNE 10.4 mph - N/A   Scattered Clouds
1:53 PM 84.0 °F 84.0 °F 60.1 °F 44% 29.83 in 10.0 mi NW 11.5 mph 19.6 mph N/A   Scattered Clouds
2:53 PM 86.0 °F 85.7 °F 60.1 °F 41% 29.82 in 10.0 mi NNW 8.1 mph - N/A   Scattered Clouds
3:53 PM 82.9 °F 83.2 °F 60.1 °F 46% 29.83 in 10.0 mi North 8.1 mph - N/A   Overcast
4:53 PM 82.0 °F 82.7 °F 61.0 °F 49% 29.82 in 10.0 mi NNW 8.1 mph - N/A   Overcast
5:53 PM 82.0 °F 82.7 °F 61.0 °F 49% 29.83 in 10.0 mi NNW 4.6 mph - N/A   Scattered Clouds
6:53 PM 80.1 °F 81.2 °F 62.1 °F 54% 29.83 in 10.0 mi NW 4.6 mph - N/A   Clear
7:53 PM 75.9 °F - 64.0 °F 67% 29.83 in 10.0 mi NNW 4.6 mph - N/A   Clear
8:53 PM 71.1 °F - 64.0 °F 78% 29.85 in 10.0 mi Calm Calm - N/A   Clear
9:53 PM 68.0 °F - 64.0 °F 87% 29.86 in 10.0 mi NW 4.6 mph - N/A   Clear
10:53 PM 68.0 °F - 63.0 °F 84% 29.87 in 10.0 mi NW 4.6 mph - N/A   Clear
11:53 PM 66.9 °F - 62.1 °F 84% 29.88 in 10.0 mi NNW 4.6 mph - N/A   Clear